User: anonymous   Login
Location: Unspecified
(0.0000°N, 0.0000°E)
Time: 09:35:37
(UTC+00:00)
Language:

OV2-5 - Orbit

View from above orbital plane
View from above orbital plane
View from above satellite
View from above satellite

Ground track
Ground track

The orbit data is extracted from the following two-line orbital elements,

1 03428U 68081A   17295.78169792 -.00000303  00000-0  00000+0 0  9999
2 03428   5.6075 311.6347 0089727 326.1561 134.5970  1.01560339 89301
Epoch (UTC): 22 October 2017 18:45:38
Eccentricity: 0.0089727
inclination: 5.6075°
perigee height: 35054 km
apogee height: 35804 km
right ascension of ascending node: 311.6347°
argument of perigee: 326.1561°
revolutions per day: 1.01560339
mean anomaly at epoch: 134.5970°
orbit number at epoch: 8930

The dashed part of the orbit path shows where the satellite is in the earth's shadow,  

DLR